This is the latest recevied weather packets stored in our database for station/object KK7MLS-13. If no packets are shown the sender has not sent any weather packets the latest 10 day(s).
| Time | Temp. | Humidity | Pressure | Rain* | Wind** | Luminosity | Snow |
|---|---|---|---|---|---|---|---|
| 1788660831 | 17.78° C | 68% | 1015.7 hPa | 0 mm | - | 11 W/m² | - |
| 1788660526 | 18.33° C | 68% | 1015.9 hPa | 0 mm | - | 15 W/m² | - |
| 1788660224 | 18.89° C | 66% | 1015.8 hPa | 0 mm | - | 18 W/m² | - |
| 1788659920 | 18.89° C | 66% | 1015.6 hPa | 0 mm | - | 18 W/m² | - |
| 1788659619 | 19.44° C | 64% | 1015.7 hPa | 0 mm | - | 18 W/m² | - |
| 1788659319 | 20° C | 63% | 1015.7 hPa | 0 mm | - | 17 W/m² | - |
| 1788659013 | 20.56° C | 59% | 1015.9 hPa | 0 mm | - | 17 W/m² | - |
| 1788658710 | 21.11° C | 56% | 1015.9 hPa | 0 mm | - | 18 W/m² | - |
| 1788658405 | 22.22° C | 53% | 1016 hPa | 0 mm | - | 20 W/m² | - |
| 1788658101 | 22.78° C | 50% | 1015.8 hPa | 0 mm | - | 20 W/m² | - |
| 1788657800 | 23.89° C | 49% | 1016 hPa | 0 mm | - | 25 W/m² | - |
| 1788657495 | 25° C | 47% | 1015.8 hPa | 0 mm | - | 34 W/m² | - |
| 1788657190 | 25° C | 46% | 1015.8 hPa | 0 mm | - | 32 W/m² | - |
| 1788656886 | 24.44° C | 49% | 1015.9 hPa | 0 mm | - | 33 W/m² | - |
| 1788656582 | 24.44° C | 49% | 1015.7 hPa | 0 mm | - | 82 W/m² | - |
| 1788656276 | 23.33° C | 52% | 1015.9 hPa | 0 mm | - | 106 W/m² | - |
| 1788655975 | 21.11° C | 62% | 1015.8 hPa | 0 mm | - | 34 W/m² | - |
| 1788655674 | 19.44° C | 67% | 1016 hPa | 0 mm | - | 151 W/m² | - |
| 1788655370 | 19.44° C | 64% | 1015.8 hPa | 0 mm | - | 26 W/m² | - |
| 1788655069 | 20° C | 62% | 1015.8 hPa | 0 mm | - | 37 W/m² | - |
| 1788654765 | 20° C | 64% | 1015.9 hPa | 0 mm | - | 34 W/m² | - |
| 1788654461 | 20.56° C | 63% | 1016 hPa | 0 mm | - | 43 W/m² | - |
| 1788654160 | 20.56° C | 59% | 1016 hPa | 0 mm | - | 36 W/m² | - |
| 1788653856 | 21.11° C | 60% | 1016.1 hPa | 0 mm | - | 44 W/m² | - |
| 1788653551 | 21.11° C | 58% | 1015.9 hPa | 0 mm | - | 54 W/m² | - |
* Rain latest hour (hover to see other rain measurements)
** Current wind speed in m/s (hover to see current wind gust speed)